Regional Weather Roundup
Issued by NWS Boston, MA

Current Version | Previous Version | Text Only | Print | Product List | Glossary Off
Versions: 1 2 3 4 5 6 7 8 9 10 11 12 13 14 15 16 17 18 19 20 21 22 23 24 25 26 27 28 29 30 31 32 33 34 35 36 37 38 39 40 41 42 43 44 45 46 47 48 49 50
277 ASUS41 KBOX 280210 RWRBOX REGIONAL WEATHER ROUNDUP NATIONAL WEATHER SERVICE TAUNTON MA 1000 PM EDT TUE JUN 27 2017 NOTE: "FAIR" INDICATES FEW OR NO CLOUDS BELOW 12,000 FEET WITH NO SIGNIFICANT WEATHER AND/OR OBSTRUCTIONS TO VISIBILITY. MAZALL-280300- EASTERN MASSACHUSETTS CITY SKY/WX TMP DP RH WIND PRES REMARKS BOSTON LGT RAIN 61 55 81 SW6 29.95S BEVERLY LGT RAIN 59 58 96 NE6 29.93F FOG LAWRENCE LGT RAIN 61 57 87 CALM 29.97R BEDFORD CLOUDY 58 56 93 W5 29.95R BLUE HILL N/A 56 54 93 MISG 29.95F NORWOOD LGT RAIN 60 57 89 CALM 29.95S MARSHFIELD NOT AVBL PLYMOUTH CLOUDY 66 55 67 NW13G25 29.97R TAUNTON CLOUDY 64 49 57 NW6 29.97R NEW BEDFORD PTCLDY 64 62 93 CALM 29.96R $$ MAZALL-280300- CAPE COD AND THE ISLANDS CITY SKY/WX TMP DP RH WIND PRES REMARKS FALMOUTH CLOUDY 66 63 88 SW10 29.97R HYANNIS PTCLDY 68 63 84 SW13 29.95R CHATHAM PTCLDY 63 61 93 CALM 29.97R PROVINCETOWN MOCLDY 66 61 84 S8 29.96R NANTUCKET CLEAR 63 62 97 S7 29.97R MARTHAS VNYRD PTCLDY 66 62 87 SW8 29.96R $$ MAZALL-280300- CENTRAL AND WESTERN MASSACHUSETTS CITY SKY/WX TMP DP RH WIND PRES REMARKS WORCESTER CLEAR 54 51 90 W9 29.98R FITCHBURG PTCLDY 59 55 87 SE3 29.98R ORANGE PTCLDY 53 53 100 CALM 29.98R FOG SPRINGFIELD PTCLDY 54 52 92 CALM 29.97R WESTFIELD CLEAR 56 54 93 CALM 29.98R NORTH ADAMS CLEAR 53 51 93 CALM 29.97R PITTSFIELD CLEAR 50 48 93 CALM 29.97R $$ RIZALL-280300- RHODE ISLAND CITY SKY/WX TMP DP RH WIND PRES REMARKS PROVIDENCE CLOUDY 64 52 64 NW6 29.97S NEWPORT CLOUDY 66 55 67 NW8 29.96R BLOCK ISLAND MOCLDY 64 61 90 SW9 29.97R WESTERLY CLOUDY 66 61 84 CALM 29.96R $$ CTZALL-280300- CONNECTICUT CITY SKY/WX TMP DP RH WIND PRES REMARKS BRADLEY INTL PTCLDY 61 48 62 W6 29.98R HARTFORD CLEAR 60 56 86 CALM 29.97R BRIDGEPORT PTCLDY 69 53 56 N5 29.97R GROTON MOCLDY 65 57 75 N7 29.96R NEW HAVEN PTCLDY 67 49 52 NW5 29.97R CHESTER FAIR 66 52 59 NW6 29.98R MERIDEN CLEAR 57 55 93 CALM 29.98R WILLIMANTIC PTCLDY 58 56 93 CALM 29.99R OXFORD CLEAR 59 46 63 CALM 29.99R $$ MEZ002-015-021-024-NHZ003-005-008-011-012-014-VTZ005-008-280300- NORTHERN NEW ENGLAND CITY SKY/WX TMP DP RH WIND PRES REMARKS PORTLAND ME RAIN 58 56 93 VRB6 29.95R FOG BANGOR ME LGT RAIN 59 57 93 S5 29.93F FOG CONCORD NH FOG 53 52 96 CALM 29.94S VSB 1 MANCHESTER NH CLOUDY 58 55 90 S7 29.94R NASHUA NH CLOUDY 57 55 93 SE3 N/A PORTSMOUTH NH MOCLDY 56 53 88 CALM 29.93F JAFFREY NH CLEAR 55 54 96 S3 29.98R KEENE NH CLEAR 53 52 96 S5 29.98R BURLINGTON VT CLOUDY 56 54 93 S6 29.93R MT. WASHINGTON FOG 37 37 100 W24 N/A VSB 0 WCI 26 $$ NYZ052-076-280300- EASTERN NEW YORK CITY SKY/WX TMP DP RH WIND PRES REMARKS ALBANY PTCLDY 56 51 84 CALM 29.97R NEW YORK CITY MOCLDY 73 49 42 NW13G21 29.96R $$ ANZALL-280300- MARINE OBSERVATIONS STATION/POSITION TIME TEMP WIND PRES VSBY WAVE AIR SEA DIR/SP/G HT/PER (UTC) (F) (DEG/KT/KT) (MB) (MI) (FT/S) BOSTON BUOY 0050 62 60 120/ 6/ 6 1012.9 1/ 3 BUZZARDS BAY 0200 65 260/ 8/ 8 1015.3R NANTUCKET SOUND 0150 65 1014.1R 1/ 3 MASS BAY-STELLWA NOT AVBL ISLE OF SHOALS 0200 58 CALM 1014.2R S OF BLOCK IS 0155 65 N/A 2/ 7 $$ ......................KEY......................... SKY/WX - SKY CONDITION/PRESENT WEATHER TMP - TEMPERATURE IN FAHRENHEIT DWPT - DEWPOINT IN FAHRENHEIT RH - RELATIVE HUMIDITY IN PERCENT WIND - DIRECTION AND SPEED IN MPH PRES - MEAN SEA LEVEL PRESSURE IN INCHES OF HG WCI - WIND CHILL INDEX VSB - VISIBILITY IN MILES HX - HEAT INDEX TC - TEMPERATURE IN CELSIUS VRB - VARIABLE WIND DIRECTION N/A - NOT AVAILABLE

USA.gov is the U.S. government's official web portal to all federal, state and local government web resources and services.